Showing default

NUSAT-26 (M SOMERVILLE), 52184

Orbit data source: Space-Track

NUSAT-26 (M SOMERVILLE), 52184 is a payload satellite owned by URUGUS S.A. (AR) in SSO that was launched on Fri, 01 Apr 2022 UTC via an FALCON 9 launch vehicle from the Air Force Eastern Test Range (AFETR). Payload-class satellites include a variety of spacecraft equipped with specific instruments for various scientific and technological missions. These include communications satellites like Starlink; space stations such as the ISS; scientific satellites like the Hubble; Earth observation satellites from companies like Planet Labs, Umbra, and HawkEye 360; GPS; miniature CubeSats for education and research; and military/defense satellites.

Loading next visibility...
Identifier
52184, 2022-033AD
Orbit
SSO
Country
Flag of ARAR / ARGN
Related business
Manufacturer
URUGUS S.A.
Mission
Operational Commercial Imaging
Bus & Motor
NEWSAT IV, Unknown motor
Mass
41.5 kg wet, 38.5 kg dry
Launch date (UTC)
2022-04-01 (4 years ago)
Launch vehicle
FALCON 9
Launch site
Air Force Eastern Test Range (AFETR)
Object type
Payload
Rocket body
Debris
Shape & HBR
Box, 1.0 m
Radar Cross Section
0.542 m², Medium (>0.1 m² and < 1m²)

Expand to show TLE details & history
Last TLE update: 6 hours ago

TLE from 6 hours ago
0 NUSAT-26 (M SOMERVILLE)
1 52184U 22033AD  26264.94282613  .00012446  00000-0  26103-3 0  9997
2 52184  97.2274 343.4580 0004100 243.8122 116.2706 15.45520138119634
Epoch: 2026-09-21T22:37Z
TLE epoch observation values (Epoch: 2026-09-21T22:37:40.177Z)
Latitude
-0.00004°
Longitude
3.22519°
Altitude
434.217 km
Speed
7.65 km/s
True Right ascension
22h 53m 49s
True Declination
0° 00' 00"
Sunlit
Object was in full shadow at epoch
Visualization orbit readout
Latitude
Unknown
Longitude
Unknown
Altitude
Unknown
Speed
Unknown
Apparent Right ascension
Unknown
Apparent Declination
Unknown
Sunlit
N/A
Visualization observer readout
Local Sidereal Time
21:57:48
Azimuth
Unknown
Elevation
Unknown
Doppler factor
Unknown
Orbital elements
Apogee altitude
429.564 km
Perigee altitude
423.984 km
Semi-major axis
6,804.911 km
Eccentricity
0.00041
Inclination
97.2274°
RAAN
343.458°
Arg. of periapsis
243.8122°
True anomaly
116.31272°
Mean anomaly
116.2706°
Eccentric anomaly
116.29166°
Mean motion
3.86642 °/min
Orbital period
93.11 mins
BSTAR
0.00026103
Loading maneuver chart data...
Computing Atmospheric mass density...

Documentation

Showing up to 5 results
|